| time (UTC) | temp F | wind direction | speed knots | gust knots | rain 1hr in | rain 24hr in | rain mn in | humidity % | barometer mb |
| 20260504090139 | 51 | 218 | 9.6 | 13.0 | 0.00 | 0.00 | 0.00 | 57 | 1015.8 |
| 20260504081609 | 51 | 278 | 3.5 | 8.7 | 0.00 | 0.00 | 0.00 | 53 | 1016.1 |
| 20260504081105 | 51 | 218 | 5.2 | 7.8 | 0.00 | 0.00 | 0.00 | 53 | 1016.1 |
| 20260504080602 | 51 | 212 | 5.2 | 7.8 | 0.00 | 0.00 | 0.00 | 52 | 1016.1 |
| 20260504050415 | 51 | 209 | 4.3 | 5.2 | 0.00 | 0.00 | 0.00 | 49 | 1016.7 |
| 20260504045912 | 51 | 204 | 2.6 | 6.1 | 0.00 | 0.00 | 0.00 | 49 | 1016.7 |
| 20260504045407 | 51 | 206 | 1.7 | 5.2 | 0.00 | 0.00 | 0.00 | 48 | 1016.6 |
| 20260504044904 | 51 | 225 | 3.5 | 5.2 | 0.00 | 0.00 | 0.00 | 49 | 1016.7 |
| 20260504044401 | 51 | 229 | 2.6 | 5.2 | 0.00 | 0.00 | 0.00 | 49 | 1016.7 |
| 20260504043859 | 51 | 194 | 4.3 | 7.0 | 0.00 | 0.00 | 0.00 | 49 | 1016.9 |
| 20260504043355 | 51 | 220 | 0.0 | 6.1 | 0.00 | 0.00 | 0.00 | 49 | 1016.6 |
| 20260504042853 | 50 | 275 | 1.7 | 6.1 | 0.00 | 0.00 | 0.00 | 50 | 1016.7 |
| 20260504042349 | 50 | 192 | 2.6 | 4.3 | 0.00 | 0.00 | 0.00 | 51 | 1016.8 |
| 20260504041845 | 50 | 220 | 2.6 | 3.5 | 0.00 | 0.00 | 0.00 | 51 | 1016.8 |
| 20260504041342 | 50 | 232 | 1.7 | 4.3 | 0.00 | 0.00 | 0.00 | 52 | 1016.9 |
| 20260504040838 | 50 | 210 | 3.5 | 3.5 | 0.00 | 0.00 | 0.00 | 52 | 1016.8 |
| 20260504040336 | 49 | 189 | 3.5 | 3.5 | 0.00 | 0.00 | 0.00 | 52 | 1016.6 |
| 20260504035831 | 49 | 232 | 2.6 | 2.6 | 0.00 | 0.00 | 0.00 | 52 | 1016.8 |
| 20260504035330 | 49 | 180 | 1.7 | 2.6 | 0.00 | 0.00 | 0.00 | 52 | 1016.7 |
| 20260504034826 | 49 | 162 | 0.0 | 3.5 | 0.00 | 0.00 | 0.00 | 52 | 1016.8 |
| 20260504034324 | 49 | 202 | 1.7 | 3.5 | 0.00 | 0.00 | 0.00 | 52 | 1016.8 |
| 20260504033821 | 49 | 216 | 2.6 | 3.5 | 0.00 | 0.00 | 0.00 | 52 | 1016.7 |
| 20260504033319 | 49 | 215 | 2.6 | 2.6 | 0.00 | 0.00 | 0.00 | 52 | 1016.8 |
| 20260504032815 | 49 | 248 | 1.7 | 2.6 | 0.00 | 0.00 | 0.00 | 53 | 1016.9 |
| 20260504032312 | 49 | 216 | 2.6 | 2.6 | 0.00 | 0.00 | 0.00 | 53 | 1016.8 |
| 20260504031809 | 49 | 196 | 1.7 | 4.3 | 0.00 | 0.00 | 0.00 | 53 | 1016.9 |
| 20260504031307 | 49 | 204 | 1.7 | 2.6 | 0.00 | 0.00 | 0.00 | 52 | 1016.7 |
| 20260504030802 | 49 | 173 | 0.9 | 2.6 | 0.00 | 0.00 | 0.00 | 52 | 1017.0 |
| 20260504030259 | 50 | 187 | 0.9 | 3.5 | 0.00 | 0.00 | 0.00 | 51 | 1016.9 |
| 20260504025755 | 50 | 183 | 1.7 | 2.6 | 0.00 | 0.00 | 0.00 | 49 | 1017.0 |
| 20260504025253 | 50 | 213 | 1.7 | 4.3 | 0.00 | 0.00 | 0.00 | 49 | 1017.1 |
| 20260504024749 | 50 | 180 | 0.0 | 2.6 | 0.00 | 0.00 | 0.00 | 52 | 1017.1 |
| 20260504024246 | 50 | 184 | 1.7 | 4.3 | 0.00 | 0.00 | 0.00 | 52 | 1017.1 |
| 20260504023743 | 49 | 285 | 0.9 | 2.6 | 0.00 | 0.00 | 0.00 | 53 | 1016.9 |
| 20260504023239 | 50 | 180 | 1.7 | 2.6 | 0.00 | 0.00 | 0.00 | 53 | 1017.0 |
| 20260504022735 | 50 | 213 | 1.7 | 3.5 | 0.00 | 0.00 | 0.00 | 52 | 1016.9 |
| 20260504022232 | 50 | 218 | 2.6 | 3.5 | 0.00 | 0.00 | 0.00 | 51 | 1017.0 |
| 20260504021729 | 50 | 225 | 1.7 | 2.6 | 0.00 | 0.00 | 0.00 | 50 | 1016.8 |
| 20260504021226 | 50 | 229 | 0.0 | 1.7 | 0.00 | 0.00 | 0.00 | 51 | 1017.0 |
| 20260504020723 | 51 | 180 | 1.7 | 1.7 | 0.00 | 0.00 | 0.00 | 49 | 1016.8 |
| 20260504020220 | 52 | 180 | 0.9 | 2.6 | 0.00 | 0.00 | 0.00 | 46 | 1016.8 |
| 20260504015716 | 52 | 237 | 2.6 | 4.3 | 0.00 | 0.00 | 0.00 | 46 | 1016.8 |
| 20260504015212 | 52 | 203 | 0.0 | 3.5 | 0.00 | 0.00 | 0.00 | 46 | 1017.0 |
| 20260504014708 | 52 | 219 | 2.6 | 3.5 | 0.00 | 0.00 | 0.00 | 45 | 1017.0 |
| 20260504014205 | 52 | 210 | 3.5 | 5.2 | 0.00 | 0.00 | 0.00 | 45 | 1016.9 |
| 20260504013703 | 53 | 251 | 1.7 | 2.6 | 0.00 | 0.00 | 0.00 | 45 | 1017.0 |
| 20260504013200 | 53 | 250 | 1.7 | 4.3 | 0.00 | 0.00 | 0.00 | 44 | 1017.0 |
| 20260504012656 | 53 | 270 | 2.6 | 5.2 | 0.00 | 0.00 | 0.00 | 44 | 1016.9 |
| 20260504012154 | 53 | 300 | 1.7 | 5.2 | 0.00 | 0.00 | 0.00 | 44 | 1016.9 |
| 20260504011651 | 53 | 256 | 2.6 | 4.3 | 0.00 | 0.00 | 0.00 | 44 | 1016.9 |
| 20260504011148 | 53 | 280 | 3.5 | 5.2 | 0.00 | 0.00 | 0.00 | 43 | 1016.9 |
| 20260504010643 | 53 | 207 | 2.6 | 4.3 | 0.00 | 0.00 | 0.00 | 43 | 1016.7 |
| 20260504010139 | 53 | 238 | 2.6 | 3.5 | 0.00 | 0.00 | 0.00 | 44 | 1016.9 |
| 20260504005637 | 53 | 231 | 1.7 | 4.3 | 0.00 | 0.00 | 0.00 | 43 | 1016.9 |
| 20260504005133 | 53 | 200 | 3.5 | 4.3 | 0.00 | 0.00 | 0.00 | 42 | 1016.9 |
| 20260504004632 | 54 | 270 | 0.9 | 4.3 | 0.00 | 0.00 | 0.00 | 43 | 1016.6 |
| 20260504004128 | 54 | 235 | 2.6 | 4.3 | 0.00 | 0.00 | 0.00 | 42 | 1016.9 |
| 20260504003624 | 54 | 252 | 2.6 | 4.3 | 0.00 | 0.00 | 0.00 | 42 | 1016.8 |
| 20260504003121 | 54 | 214 | 0.0 | 4.3 | 0.00 | 0.00 | 0.00 | 42 | 1016.8 |
| 20260504002618 | 54 | 226 | 3.5 | 4.3 | 0.00 | 0.00 | 0.00 | 41 | 1016.9 |
| 20260504002116 | 54 | 213 | 1.7 | 6.1 | 0.00 | 0.00 | 0.00 | 41 | 1016.6 |
| 20260504001614 | 54 | 238 | 2.6 | 7.8 | 0.00 | 0.00 | 0.00 | 40 | 1016.7 |
| 20260504001109 | 54 | 275 | 1.7 | 6.1 | 0.00 | 0.00 | 0.00 | 41 | 1016.7 |
| 20260504000607 | 55 | 243 | 2.6 | 5.2 | 0.00 | 0.00 | 0.00 | 41 | 1016.6 |
| 20260504000104 | 55 | 247 | 4.3 | 5.2 | 0.00 | 0.00 | 0.00 | 40 | 1016.8 |
| 20260503235602 | 55 | 232 | 7.0 | 7.0 | 0.00 | 0.00 | 0.00 | 40 | 1016.6 |
| 20260503235058 | 55 | 222 | 2.6 | 6.1 | 0.00 | 0.00 | 0.00 | 40 | 1016.8 |
| 20260503234556 | 55 | 195 | 4.3 | 7.8 | 0.00 | 0.00 | 0.00 | 39 | 1016.7 |
| 20260503234054 | 55 | 222 | 2.6 | 5.2 | 0.00 | 0.00 | 0.00 | 39 | 1016.7 |
| 20260503233550 | 55 | 268 | 4.3 | 5.2 | 0.00 | 0.00 | 0.00 | 39 | 1016.8 |
| 20260503233046 | 56 | 233 | 3.5 | 9.6 | 0.00 | 0.00 | 0.00 | 39 | 1016.8 |
| 20260503232544 | 56 | 251 | 6.1 | 8.7 | 0.00 | 0.00 | 0.00 | 38 | 1016.7 |
| 20260503232041 | 56 | 237 | 4.3 | 8.7 | 0.00 | 0.00 | 0.00 | 37 | 1016.9 |
| 20260503231539 | 56 | 243 | 7.0 | 9.6 | 0.00 | 0.00 | 0.00 | 37 | 1016.8 |
| 20260503231035 | 57 | 255 | 6.1 | 12.2 | 0.00 | 0.00 | 0.00 | 37 | 1016.7 |
| 20260503230532 | 57 | 276 | 4.3 | 12.2 | 0.00 | 0.00 | 0.00 | 37 | 1016.8 |
| 20260503230030 | 57 | 213 | 5.2 | 8.7 | 0.00 | 0.00 | 0.00 | 37 | 1016.8 |
| 20260503225526 | 57 | 202 | 4.3 | 7.0 | 0.00 | 0.00 | 0.00 | 36 | 1016.9 |
| 20260503225021 | 57 | 219 | 5.2 | 9.6 | 0.00 | 0.00 | 0.00 | 37 | 1016.7 |
| 20260503224519 | 58 | 212 | 6.1 | 9.6 | 0.00 | 0.00 | 0.00 | 36 | 1017.0 |
| 20260503224017 | 58 | 272 | 4.3 | 9.6 | 0.00 | 0.00 | 0.00 | 36 | 1016.9 |
| 20260503223515 | 58 | 255 | 6.1 | 13.9 | 0.00 | 0.00 | 0.00 | 35 | 1016.8 |
| 20260503223010 | 58 | 272 | 6.1 | 11.3 | 0.00 | 0.00 | 0.00 | 35 | 1017.1 |
| 20260503222508 | 58 | 233 | 3.5 | 13.0 | 0.00 | 0.00 | 0.00 | 36 | 1017.0 |
| 20260503222006 | 58 | 255 | 5.2 | 10.4 | 0.00 | 0.00 | 0.00 | 36 | 1016.9 |
| 20260503221504 | 58 | 199 | 1.7 | 11.3 | 0.00 | 0.00 | 0.00 | 37 | 1017.0 |
| 20260503221001 | 59 | 272 | 4.3 | 8.7 | 0.00 | 0.00 | 0.00 | 35 | 1017.1 |
| 20260503220457 | 58 | 252 | 12.2 | 13.0 | 0.00 | 0.00 | 0.00 | 35 | 1016.9 |
| 20260503215954 | 58 | 222 | 10.4 | 12.2 | 0.00 | 0.00 | 0.00 | 35 | 1017.0 |
| 20260503215451 | 58 | 222 | 8.7 | 13.0 | 0.00 | 0.00 | 0.00 | 35 | 1017.1 |
| 20260503214948 | 59 | 209 | 4.3 | 6.1 | 0.00 | 0.00 | 0.00 | 36 | 1017.0 |
| 20260503214447 | 58 | 150 | 5.2 | 13.9 | 0.00 | 0.00 | 0.00 | 35 | 1017.2 |
| 20260503213943 | 59 | 261 | 2.6 | 6.1 | 0.00 | 0.00 | 0.00 | 34 | 1016.9 |
| 20260503213442 | 59 | 222 | 5.2 | 11.3 | 0.00 | 0.00 | 0.00 | 34 | 1016.9 |
| 20260503212937 | 58 | 262 | 7.8 | 13.0 | 0.00 | 0.00 | 0.00 | 35 | 1016.9 |
| 20260503212435 | 59 | 223 | 5.2 | 7.8 | 0.00 | 0.00 | 0.00 | 35 | 1017.1 |
| 20260503211932 | 59 | 255 | 11.3 | 15.6 | 0.00 | 0.00 | 0.00 | 34 | 1016.9 |
| 20260503211429 | 60 | 265 | 1.7 | 6.1 | 0.00 | 0.00 | 0.00 | 36 | 1016.8 |
| 20260503210924 | 58 | 302 | 8.7 | 13.0 | 0.00 | 0.00 | 0.00 | 36 | 1016.8 |
| 20260503210422 | 58 | 278 | 5.2 | 10.4 | 0.00 | 0.00 | 0.00 | 35 | 1016.9 |
| 20260503205917 | 58 | 242 | 5.2 | 15.6 | 0.00 | 0.00 | 0.00 | 35 | 1017.0 |
| 20260503205414 | 59 | 227 | 7.8 | 8.7 | 0.00 | 0.00 | 0.00 | 35 | 1017.2 |
| 20260503204910 | 59 | 204 | 9.6 | 14.8 | 0.00 | 0.00 | 0.00 | 36 | 1017.1 |
| 20260503204408 | 59 | 207 | 5.2 | 11.3 | 0.00 | 0.00 | 0.00 | 35 | 1017.2 |
| 20260503203905 | 58 | 261 | 1.7 | 14.8 | 0.00 | 0.00 | 0.00 | 35 | 1017.2 |
| 20260503203402 | 59 | 217 | 4.3 | 13.0 | 0.00 | 0.00 | 0.00 | 35 | 1017.1 |
| 20260503202859 | 59 | 207 | 3.5 | 8.7 | 0.00 | 0.00 | 0.00 | 36 | 1017.4 |
| 20260503202357 | 58 | 236 | 7.8 | 13.0 | 0.00 | 0.00 | 0.00 | 34 | 1017.6 |
| 20260503201855 | 58 | 262 | 1.7 | 13.0 | 0.00 | 0.00 | 0.00 | 35 | 1017.5 |
| 20260503201352 | 59 | 230 | 7.8 | 14.8 | 0.00 | 0.00 | 0.00 | 35 | 1017.5 |
| 20260503200849 | 57 | 262 | 2.6 | 8.7 | 0.00 | 0.00 | 0.00 | 38 | 1017.6 |
| 20260503200345 | 58 | 267 | 2.6 | 5.2 | 0.00 | 0.00 | 0.00 | 37 | 1017.6 |
| 20260503195842 | 57 | 220 | 9.6 | 13.0 | 0.00 | 0.00 | 0.00 | 36 | 1017.6 |
| 20260503195339 | 57 | 277 | 4.3 | 8.7 | 0.00 | 0.00 | 0.00 | 36 | 1017.9 |
| 20260503194836 | 58 | 226 | 4.3 | 8.7 | 0.00 | 0.00 | 0.00 | 37 | 1017.9 |
| 20260503194332 | 58 | 227 | 8.7 | 15.6 | 0.00 | 0.00 | 0.00 | 35 | 1018.1 |
| 20260503193828 | 58 | 156 | 5.2 | 12.2 | 0.00 | 0.00 | 0.00 | 39 | 1018.3 |
| 20260503193324 | 57 | 213 | 6.1 | 13.9 | 0.00 | 0.00 | 0.00 | 35 | 1018.1 |
| 20260503192820 | 56 | 298 | 6.1 | 11.3 | 0.00 | 0.00 | 0.00 | 36 | 1018.4 |
| 20260503192316 | 56 | 297 | 2.6 | 6.1 | 0.00 | 0.00 | 0.00 | 37 | 1018.5 |
| 20260503191812 | 56 | 270 | 1.7 | 4.3 | 0.00 | 0.00 | 0.00 | 38 | 1018.5 |
| 20260503191310 | 55 | 239 | 6.1 | 7.8 | 0.00 | 0.00 | 0.00 | 38 | 1018.5 |
| 20260503190806 | 55 | 298 | 7.0 | 13.9 | 0.00 | 0.00 | 0.00 | 37 | 1018.3 |
| 20260503190303 | 56 | 291 | 4.3 | 10.4 | 0.00 | 0.00 | 0.00 | 38 | 1018.5 |
| 20260503185800 | 56 | 310 | 1.7 | 12.2 | 0.00 | 0.00 | 0.00 | 39 | 1018.6 |
| 20260503185256 | 55 | 8 | 5.2 | 13.9 | 0.00 | 0.00 | 0.00 | 38 | 1018.7 |
| 20260503184755 | 56 | 329 | 7.8 | 10.4 | 0.00 | 0.00 | 0.00 | 41 | 1018.6 |
| 20260503184252 | 55 | 312 | 6.1 | 10.4 | 0.00 | 0.00 | 0.00 | 39 | 1018.8 |
| 20260503183748 | 56 | 286 | 5.2 | 13.0 | 0.00 | 0.00 | 0.00 | 38 | 1018.8 |
| 20260503183246 | 57 | 297 | 6.1 | 13.0 | 0.00 | 0.00 | 0.00 | 38 | 1018.9 |
| 20260503182743 | 56 | 252 | 5.2 | 5.2 | 0.00 | 0.00 | 0.00 | 38 | 1019.0 |
| 20260503182242 | 55 | 277 | 5.2 | 13.9 | 0.00 | 0.00 | 0.00 | 40 | 1018.9 |
| 20260503181739 | 57 | 212 | 5.2 | 11.3 | 0.00 | 0.00 | 0.00 | 36 | 1019.1 |
| 20260503181236 | 55 | 315 | 5.2 | 11.3 | 0.00 | 0.00 | 0.00 | 38 | 1019.0 |
| 20260503180732 | 56 | 23 | 4.3 | 6.1 | 0.00 | 0.00 | 0.00 | 40 | 1018.8 |
| 20260503180231 | 55 | 221 | 7.8 | 11.3 | 0.00 | 0.00 | 0.00 | 39 | 1019.0 |
| 20260503175727 | 55 | 183 | 5.2 | 13.9 | 0.00 | 0.00 | 0.00 | 40 | 1019.1 |
| 20260503175225 | 54 | 209 | 3.5 | 13.9 | 0.00 | 0.00 | 0.00 | 38 | 1019.3 |
| 20260503174720 | 55 | 261 | 11.3 | 13.9 | 0.00 | 0.00 | 0.00 | 39 | 1019.3 |
| 20260503174218 | 55 | 265 | 5.2 | 19.1 | 0.00 | 0.00 | 0.00 | 38 | 1019.4 |
| 20260503173714 | 54 | 170 | 1.7 | 10.4 | 0.00 | 0.00 | 0.00 | 41 | 1019.4 |
| 20260503173210 | 54 | 247 | 10.4 | 17.4 | 0.00 | 0.00 | 0.00 | 40 | 1019.7 |
| 20260503172707 | 54 | 222 | 5.2 | 8.7 | 0.00 | 0.00 | 0.00 | 41 | 1019.5 |
| 20260503172204 | 54 | 264 | 5.2 | 18.2 | 0.00 | 0.00 | 0.00 | 38 | 1019.6 |
| 20260503171700 | 54 | 246 | 12.2 | 12.2 | 0.00 | 0.00 | 0.00 | 41 | 1019.5 |
| 20260503171158 | 53 | 218 | 4.3 | 16.5 | 0.00 | 0.00 | 0.00 | 40 | 1019.6 |
| 20260503170654 | 54 | 253 | 9.6 | 10.4 | 0.00 | 0.00 | 0.00 | 42 | 1019.6 |
| 20260503170151 | 53 | 221 | 10.4 | 19.1 | 0.00 | 0.00 | 0.00 | 40 | 1019.8 |
| 20260503160113 | 51 | 297 | 10.4 | 16.5 | 0.00 | 0.00 | 0.00 | 45 | 1020.5 |
| 20260503150542 | 48 | 254 | 3.5 | 13.9 | 0.00 | 0.00 | 0.00 | 48 | 1020.6 |
| 20260503130932 | 43 | 257 | 0.0 | 10.4 | 0.00 | 0.00 | 0.00 | 74 | 1020.8 |
| 20260503130430 | 42 | 270 | 4.3 | 5.2 | 0.00 | 0.00 | 0.00 | 76 | 1021.0 |
| 20260503110823 | 35 | 252 | 2.6 | 4.3 | 0.00 | 0.00 | 0.00 | 92 | 1020.0 |
| 20260503110319 | 35 | 210 | 3.5 | 4.3 | 0.00 | 0.00 | 0.00 | 92 | 1020.0 |
| 20260503100246 | 35 | 234 | 4.3 | 5.2 | 0.00 | 0.00 | 0.00 | 92 | 1019.1 |